Time,TemperatureF,DewpointF,PressureIn,WindDirection,WindDirectionDegrees,WindSpeedMPH,WindSpeedGustMPH,Humidity,HourlyPrecipIn,Conditions,Clouds,dailyrainin,SolarRadiationWatts/m^2,SoftwareType,DateUTC
2013-07-11 00:01:00,50.0,47.0,30.06,NNE,23,13.0,22.0,91,0.00,,,0.00,0.000000,,2013-07-11 07:01:00,
2013-07-11 00:12:00,50.0,47.0,30.06,NNE,12,12.0,18.0,90,0.00,,,0.00,0.000000,,2013-07-11 07:12:00,
2013-07-11 00:22:00,50.0,47.0,30.06,NNE,12,12.0,18.0,90,0.00,,,0.00,0.000000,,2013-07-11 07:22:00,
2013-07-11 00:32:00,50.0,47.0,30.06,NNE,13,11.0,18.0,90,0.00,,,0.00,0.000000,,2013-07-11 07:32:00,
2013-07-11 00:45:00,50.0,47.0,30.06,NNE,18,11.0,19.0,90,0.00,,,0.00,0.000000,,2013-07-11 07:45:00,
2013-07-11 00:53:00,50.0,47.0,30.06,NNE,18,11.0,19.0,90,0.00,,,0.00,0.000000,,2013-07-11 07:53:00,
2013-07-11 01:02:00,50.0,47.0,30.06,NNE,15,11.0,18.0,91,0.00,,,0.00,0.000000,,2013-07-11 08:02:00,
2013-07-11 01:11:00,50.0,47.0,30.06,North,5,8.0,14.0,90,0.00,,,0.00,0.000000,,2013-07-11 08:11:00,
2013-07-11 01:22:00,50.0,47.0,30.06,North,5,8.0,14.0,90,0.00,,,0.00,0.000000,,2013-07-11 08:22:00,
2013-07-11 01:33:00,51.0,48.0,30.06,NE,38,8.0,11.0,91,0.00,,,0.00,0.000000,,2013-07-11 08:33:00,
2013-07-11 01:42:00,51.0,48.0,30.06,North,4,8.0,11.0,89,0.00,,,0.00,0.000000,,2013-07-11 08:42:00,
2013-07-11 01:53:00,51.0,48.0,30.06,North,4,8.0,11.0,89,0.00,,,0.00,0.000000,,2013-07-11 08:53:00,
2013-07-11 02:02:00,50.0,47.0,30.06,NNE,29,8.0,11.0,90,0.00,,,0.00,0.000000,,2013-07-11 09:02:00,
2013-07-11 02:12:00,52.0,49.0,30.06,NNE,28,8.0,13.0,90,0.00,,,0.00,0.000000,,2013-07-11 09:12:00,
2013-07-11 02:21:00,52.0,49.0,30.06,NNE,28,8.0,13.0,90,0.00,,,0.00,0.000000,,2013-07-11 09:21:00,
2013-07-11 02:33:00,52.0,49.0,30.06,NNE,15,7.0,14.0,89,0.00,,,0.00,0.000000,,2013-07-11 09:33:00,
2013-07-11 02:43:00,53.0,50.0,30.06,NNE,30,7.0,12.0,88,0.00,,,0.00,0.000000,,2013-07-11 09:43:00,
2013-07-11 02:53:00,53.0,50.0,30.06,NNE,30,7.0,12.0,88,0.00,,,0.00,0.000000,,2013-07-11 09:53:00,
2013-07-11 03:01:00,53.0,49.0,30.06,NE,44,7.0,15.0,87,0.00,,,0.00,0.000000,,2013-07-11 10:01:00,
2013-07-11 03:11:00,53.0,49.0,30.06,NNE,32,7.0,14.0,86,0.00,,,0.00,0.000000,,2013-07-11 10:11:00,
2013-07-11 03:21:00,53.0,49.0,30.06,NNE,32,7.0,14.0,86,0.00,,,0.00,0.000000,,2013-07-11 10:21:00,
2013-07-11 03:33:00,54.0,50.0,30.06,NNE,13,6.0,14.0,85,0.00,,,0.00,0.000000,,2013-07-11 10:33:00,
2013-07-11 03:42:00,52.0,48.0,30.06,NNE,27,5.0,10.0,85,0.00,,,0.00,0.000000,,2013-07-11 10:42:00,
2013-07-11 03:52:00,52.0,48.0,30.06,NNE,27,5.0,10.0,85,0.00,,,0.00,0.000000,,2013-07-11 10:52:00,
2013-07-11 04:01:00,50.0,46.0,30.06,North,358,8.0,11.0,87,0.00,,,0.00,0.000000,,2013-07-11 11:01:00,
2013-07-11 04:11:00,49.0,46.0,30.06,NNE,14,6.0,9.0,88,0.00,,,0.00,0.000000,,2013-07-11 11:11:00,
2013-07-11 04:22:00,49.0,46.0,30.06,NNE,14,6.0,9.0,88,0.00,,,0.00,0.000000,,2013-07-11 11:22:00,
2013-07-11 04:32:00,49.0,46.0,30.06,NNE,20,5.0,9.0,89,0.00,,,0.00,0.000000,,2013-07-11 11:32:00,
2013-07-11 04:43:00,49.0,46.0,30.06,NNE,17,6.0,12.0,90,0.00,,,0.00,0.000000,,2013-07-11 11:43:00,
2013-07-11 04:53:00,49.0,46.0,30.06,NNE,17,6.0,12.0,90,0.00,,,0.00,0.000000,,2013-07-11 11:53:00,
2013-07-11 05:01:00,49.0,46.0,30.06,NNE,13,5.0,8.0,90,0.00,,,0.00,0.000000,,2013-07-11 12:01:00,
2013-07-11 05:12:00,48.0,45.0,30.06,North,359,6.0,8.0,90,0.00,,,0.00,0.000000,,2013-07-11 12:12:00,
2013-07-11 05:22:00,48.0,45.0,30.06,North,359,6.0,8.0,90,0.00,,,0.00,0.000000,,2013-07-11 12:22:00,
2013-07-11 05:33:00,48.0,45.0,30.07,North,360,7.0,10.0,90,0.00,,,0.00,0.000000,,2013-07-11 12:33:00,
2013-07-11 05:42:00,47.0,45.0,30.07,North,11,6.0,9.0,91,0.00,,,0.00,0.000000,,2013-07-11 12:42:00,
2013-07-11 05:54:00,47.0,45.0,30.07,North,11,6.0,9.0,91,0.00,,,0.00,0.000000,,2013-07-11 12:54:00,
2013-07-11 06:01:00,47.0,45.0,30.07,NE,52,4.0,8.0,92,0.00,,,0.00,0.000000,,2013-07-11 13:01:00,
2013-07-11 06:11:00,47.0,45.0,30.07,NE,52,4.0,8.0,92,0.00,,,0.00,0.000000,,2013-07-11 13:11:00,
2013-07-11 06:22:00,50.0,48.0,30.07,ENE,69,5.0,10.0,92,0.00,,,0.00,9.000000,,2013-07-11 13:22:00,
2013-07-11 06:33:00,52.0,49.0,30.07,NNE,23,7.0,13.0,90,0.00,,,0.00,16.000000,,2013-07-11 13:33:00,
2013-07-11 06:43:00,53.0,49.0,30.08,NE,44,7.0,15.0,87,0.00,,,0.00,21.000000,,2013-07-11 13:43:00,
2013-07-11 06:53:00,53.0,49.0,30.08,NE,44,7.0,15.0,87,0.00,,,0.00,21.000000,,2013-07-11 13:53:00,
2013-07-11 07:03:00,53.0,49.0,30.08,NE,37,7.0,14.0,86,0.00,,,0.00,26.000000,,2013-07-11 14:03:00,
2013-07-11 07:11:00,53.0,49.0,30.08,NE,37,7.0,14.0,86,0.00,,,0.00,26.000000,,2013-07-11 14:11:00,
2013-07-11 07:22:00,54.0,50.0,30.08,NNE,27,10.0,14.0,85,0.00,,,0.00,95.000000,,2013-07-11 14:22:00,
2013-07-11 07:53:00,56.0,51.0,30.09,NE,36,5.0,14.0,82,0.00,,,0.00,197.000000,,2013-07-11 14:53:00,
2013-07-11 08:03:00,57.0,51.0,30.09,North,3,6.0,16.0,80,0.00,,,0.00,243.000000,,2013-07-11 15:03:00,
2013-07-11 08:11:00,57.0,51.0,30.09,NNE,16,10.0,16.0,79,0.00,,,0.00,283.000000,,2013-07-11 15:11:00,
2013-07-11 08:22:00,57.0,51.0,30.09,NNE,16,10.0,16.0,79,0.00,,,0.00,283.000000,,2013-07-11 15:22:00,
2013-07-11 08:34:00,58.0,51.0,30.09,NNE,17,10.0,16.0,77,0.00,,,0.00,327.000000,,2013-07-11 15:34:00,
2013-07-11 08:44:00,58.0,50.0,30.09,NNE,15,10.0,18.0,76,0.00,,,0.00,371.000000,,2013-07-11 15:44:00,
2013-07-11 08:54:00,58.0,50.0,30.09,NNE,15,10.0,18.0,76,0.00,,,0.00,371.000000,,2013-07-11 15:54:00,
2013-07-11 09:11:00,53.0,48.0,30.09,NNW,346,8.0,14.0,84,0.00,,,0.00,452.000000,,2013-07-11 16:11:00,
2013-07-11 09:22:00,53.0,48.0,30.09,NNW,346,8.0,14.0,84,0.00,,,0.00,452.000000,,2013-07-11 16:22:00,
2013-07-11 09:33:00,55.0,49.0,30.08,NNE,22,11.0,16.0,81,0.00,,,0.00,497.000000,,2013-07-11 16:33:00,
2013-07-11 09:43:00,53.0,48.0,30.08,North,355,7.0,11.0,84,0.00,,,0.00,534.000000,,2013-07-11 16:43:00,
2013-07-11 09:54:00,53.0,48.0,30.08,North,355,7.0,11.0,84,0.00,,,0.00,534.000000,,2013-07-11 16:54:00,
2013-07-11 10:02:00,54.0,49.0,30.08,North,358,8.0,15.0,83,0.00,,,0.00,592.000000,,2013-07-11 17:02:00,
2013-07-11 10:12:00,54.0,49.0,30.08,North,3,8.0,11.0,83,0.00,,,0.00,619.000000,,2013-07-11 17:12:00,
2013-07-11 10:22:00,54.0,49.0,30.08,North,3,8.0,11.0,83,0.00,,,0.00,619.000000,,2013-07-11 17:22:00,
2013-07-11 10:43:00,56.0,51.0,30.09,NNE,19,7.0,11.0,84,0.00,,,0.00,689.000000,,2013-07-11 17:43:00,
2013-07-11 10:52:00,56.0,51.0,30.09,NNE,19,7.0,11.0,84,0.00,,,0.00,689.000000,,2013-07-11 17:52:00,
2013-07-11 11:03:00,56.0,51.0,30.08,North,6,7.0,13.0,83,0.00,,,0.00,719.000000,,2013-07-11 18:03:00,
2013-07-11 11:11:00,56.0,51.0,30.08,NE,35,9.0,14.0,83,0.00,,,0.00,752.000000,,2013-07-11 18:11:00,
2013-07-11 11:22:00,56.0,51.0,30.08,NE,35,9.0,14.0,83,0.00,,,0.00,752.000000,,2013-07-11 18:22:00,
2013-07-11 11:33:00,57.0,51.0,30.08,NNE,25,11.0,16.0,81,0.00,,,0.00,784.000000,,2013-07-11 18:33:00,
2013-07-11 11:44:00,57.0,52.0,30.08,North,4,11.0,16.0,82,0.00,,,0.00,809.000000,,2013-07-11 18:44:00,
2013-07-11 11:53:00,57.0,52.0,30.08,North,4,11.0,16.0,82,0.00,,,0.00,809.000000,,2013-07-11 18:53:00,
2013-07-11 12:02:00,57.0,51.0,30.08,NNE,32,12.0,19.0,81,0.00,,,0.00,833.000000,,2013-07-11 19:02:00,
2013-07-11 12:11:00,57.0,51.0,30.08,NNE,32,12.0,19.0,81,0.00,,,0.00,833.000000,,2013-07-11 19:11:00,
2013-07-11 12:22:00,58.0,52.0,30.08,North,360,13.0,16.0,79,0.00,,,0.00,854.000000,,2013-07-11 19:22:00,
2013-07-11 12:43:00,59.0,52.0,30.08,NNE,18,12.0,16.0,78,0.00,,,0.00,886.000000,,2013-07-11 19:43:00,
2013-07-11 12:52:00,59.0,52.0,30.08,NNE,18,12.0,16.0,78,0.00,,,0.00,886.000000,,2013-07-11 19:52:00,
2013-07-11 13:03:00,59.0,52.0,30.09,NNE,30,14.0,19.0,79,0.00,,,0.00,896.000000,,2013-07-11 20:03:00,
2013-07-11 13:11:00,59.0,52.0,30.09,NNE,30,14.0,19.0,79,0.00,,,0.00,896.000000,,2013-07-11 20:11:00,
2013-07-11 13:22:00,59.0,53.0,30.09,NNE,13,16.0,24.0,80,0.00,,,0.00,904.000000,,2013-07-11 20:22:00,
2013-07-11 13:34:00,59.0,53.0,30.09,North,8,13.0,23.0,80,0.00,,,0.00,905.000000,,2013-07-11 20:34:00,
2013-07-11 13:43:00,60.0,54.0,30.08,North,9,16.0,23.0,80,0.00,,,0.00,914.000000,,2013-07-11 20:43:00,
2013-07-11 13:52:00,60.0,54.0,30.08,North,9,16.0,23.0,80,0.00,,,0.00,914.000000,,2013-07-11 20:52:00,
2013-07-11 14:02:00,60.0,54.0,30.08,NNE,19,14.0,21.0,81,0.00,,,0.00,912.000000,,2013-07-11 21:02:00,
2013-07-11 14:22:00,60.0,53.0,30.08,NNE,29,15.0,22.0,79,0.00,,,0.00,909.000000,,2013-07-11 21:22:00,
2013-07-11 14:33:00,61.0,55.0,30.08,NNE,19,16.0,22.0,80,0.00,,,0.00,904.000000,,2013-07-11 21:33:00,
2013-07-11 14:52:00,60.0,54.0,30.08,NNE,24,16.0,22.0,80,0.00,,,0.00,893.000000,,2013-07-11 21:52:00,
2013-07-11 15:03:00,60.0,54.0,30.07,NNE,12,15.0,21.0,80,0.00,,,0.00,881.000000,,2013-07-11 22:03:00,
2013-07-11 15:22:00,60.0,54.0,30.07,North,358,14.0,22.0,80,0.00,,,0.00,863.000000,,2013-07-11 22:22:00,
2013-07-11 15:32:00,60.0,53.0,30.07,NNE,21,12.0,21.0,79,0.00,,,0.00,842.000000,,2013-07-11 22:32:00,
2013-07-11 15:43:00,59.0,52.0,30.06,NNE,25,14.0,19.0,79,0.00,,,0.00,817.000000,,2013-07-11 22:43:00,
2013-07-11 15:53:00,59.0,52.0,30.06,NNE,25,14.0,19.0,79,0.00,,,0.00,817.000000,,2013-07-11 22:53:00,
2013-07-11 16:01:00,59.0,52.0,30.06,NNE,13,14.0,21.0,78,0.00,,,0.00,800.000000,,2013-07-11 23:01:00,
2013-07-11 16:11:00,59.0,52.0,30.06,NNE,13,14.0,21.0,78,0.00,,,0.00,800.000000,,2013-07-11 23:11:00,
2013-07-11 16:33:00,60.0,53.0,30.06,NNE,29,14.0,22.0,79,0.00,,,0.00,742.000000,,2013-07-11 23:33:00,
2013-07-11 16:53:00,60.0,53.0,30.06,NNE,15,15.0,19.0,79,0.00,,,0.00,705.000000,,2013-07-11 23:53:00,
2013-07-11 17:03:00,59.0,52.0,30.05,NNE,19,14.0,21.0,78,0.00,,,0.00,675.000000,,2013-07-12 00:03:00,
2013-07-11 17:11:00,59.0,52.0,30.05,North,2,14.0,22.0,79,0.00,,,0.00,636.000000,,2013-07-12 00:11:00,
2013-07-11 17:22:00,59.0,52.0,30.05,North,2,14.0,22.0,79,0.00,,,0.00,636.000000,,2013-07-12 00:22:00,
2013-07-11 17:52:00,59.0,52.0,30.05,NNE,15,14.0,21.0,79,0.00,,,0.00,547.000000,,2013-07-12 00:52:00,
2013-07-11 18:02:00,58.0,52.0,30.05,North,3,15.0,22.0,80,0.00,,,0.00,513.000000,,2013-07-12 01:02:00,
2013-07-11 18:11:00,58.0,52.0,30.05,North,3,15.0,22.0,80,0.00,,,0.00,513.000000,,2013-07-12 01:11:00,
2013-07-11 18:22:00,58.0,52.0,30.05,NNE,13,14.0,21.0,80,0.00,,,0.00,478.000000,,2013-07-12 01:22:00,
2013-07-11 18:33:00,58.0,52.0,30.04,North,7,14.0,23.0,80,0.00,,,0.00,434.000000,,2013-07-12 01:33:00,
2013-07-11 18:43:00,58.0,52.0,30.04,NNE,22,15.0,23.0,81,0.00,,,0.00,387.000000,,2013-07-12 01:43:00,
2013-07-11 18:53:00,58.0,52.0,30.04,NNE,22,15.0,23.0,81,0.00,,,0.00,387.000000,,2013-07-12 01:53:00,
2013-07-11 19:02:00,58.0,52.0,30.04,NNE,27,16.0,24.0,81,0.00,,,0.00,343.000000,,2013-07-12 02:02:00,
2013-07-11 19:11:00,57.0,51.0,30.04,North,7,14.0,23.0,81,0.00,,,0.00,299.000000,,2013-07-12 02:11:00,
2013-07-11 19:23:00,57.0,51.0,30.04,North,7,14.0,23.0,81,0.00,,,0.00,299.000000,,2013-07-12 02:23:00,
2013-07-11 19:43:00,56.0,51.0,30.03,North,11,13.0,19.0,82,0.00,,,0.00,209.000000,,2013-07-12 02:43:00,
2013-07-11 19:52:00,56.0,51.0,30.03,North,11,13.0,19.0,82,0.00,,,0.00,209.000000,,2013-07-12 02:52:00,
2013-07-11 20:02:00,56.0,51.0,30.03,North,9,16.0,24.0,83,0.00,,,0.00,160.000000,,2013-07-12 03:02:00,
2013-07-11 20:12:00,56.0,51.0,30.03,NNE,19,14.0,21.0,84,0.00,,,0.00,116.000000,,2013-07-12 03:12:00,
2013-07-11 20:22:00,56.0,51.0,30.03,NNE,19,14.0,21.0,84,0.00,,,0.00,116.000000,,2013-07-12 03:22:00,
2013-07-11 20:43:00,54.0,50.0,30.03,North,8,14.0,18.0,85,0.00,,,0.00,28.000000,,2013-07-12 03:43:00,
2013-07-11 20:53:00,54.0,50.0,30.03,North,8,14.0,18.0,85,0.00,,,0.00,28.000000,,2013-07-12 03:53:00,
2013-07-11 21:01:00,53.0,49.0,30.03,North,3,11.0,16.0,87,0.00,,,0.00,18.000000,,2013-07-12 04:01:00,
2013-07-11 21:11:00,53.0,49.0,30.03,North,8,12.0,16.0,87,0.00,,,0.00,5.000000,,2013-07-12 04:11:00,
2013-07-11 21:21:00,53.0,49.0,30.03,North,8,12.0,16.0,87,0.00,,,0.00,5.000000,,2013-07-12 04:21:00,
2013-07-11 21:32:00,52.0,49.0,30.03,North,4,11.0,15.0,88,0.00,,,0.00,0.000000,,2013-07-12 04:32:00,
2013-07-11 21:43:00,51.0,48.0,30.03,North,358,11.0,14.0,89,0.00,,,0.00,0.000000,,2013-07-12 04:43:00,
2013-07-11 21:53:00,51.0,48.0,30.03,North,358,11.0,14.0,89,0.00,,,0.00,0.000000,,2013-07-12 04:53:00,
2013-07-11 22:02:00,51.0,48.0,30.03,NNE,13,11.0,14.0,89,0.00,,,0.00,0.000000,,2013-07-12 05:02:00,
2013-07-11 22:11:00,51.0,48.0,30.03,North,358,11.0,14.0,90,0.00,,,0.00,0.000000,,2013-07-12 05:11:00,
2013-07-11 22:22:00,51.0,48.0,30.03,North,358,11.0,14.0,90,0.00,,,0.00,0.000000,,2013-07-12 05:22:00,
2013-07-11 22:32:00,51.0,48.0,30.04,NNE,13,10.0,14.0,90,0.00,,,0.00,0.000000,,2013-07-12 05:32:00,
2013-07-11 22:53:00,51.0,48.0,30.04,NNE,18,11.0,14.0,91,0.00,,,0.00,0.000000,,2013-07-12 05:53:00,
2013-07-11 23:01:00,50.0,47.0,30.04,NNE,13,9.0,13.0,91,0.00,,,0.00,0.000000,,2013-07-12 06:01:00,
2013-07-11 23:11:00,50.0,47.0,30.04,NNE,13,9.0,13.0,91,0.00,,,0.00,0.000000,,2013-07-12 06:11:00,
2013-07-11 23:22:00,50.0,47.0,30.04,North,7,9.0,14.0,91,0.00,,,0.00,0.000000,,2013-07-12 06:22:00,
2013-07-11 23:32:00,50.0,47.0,30.04,NNE,19,10.0,14.0,91,0.00,,,0.00,0.000000,,2013-07-12 06:32:00,
2013-07-11 23:52:00,50.0,48.0,30.04,North,5,8.0,13.0,92,0.00,,,0.00,0.000000,,2013-07-12 06:52:00,